User: anonymous   Login
Location: Unspecified
(0.0000°N, 0.0000°E)
Time: 11:30:14
(UTC+02:00)
Language:

H-2A R/B - Orbit

View from above orbital plane
View from above orbital plane
View from above satellite
View from above satellite

Ground track
Ground track

The orbit data is extracted from the following two-line orbital elements,

1 26899U 01038B   15238.78971964 +.00000923 +00000-0 +35355-3 0  9994
2 26899 028.3908 333.0379 7129178 111.5540 011.2855 02.45993929120193
Epoch (UTC): 26 August 2015 18:57:11
Eccentricity: 0.7129178
inclination: 28.3908°
perigee height: 276 km
apogee height: 33327 km
right ascension of ascending node: 333.0379°
argument of perigee: 111.5540°
revolutions per day: 2.45993929
mean anomaly at epoch: 11.2855°
orbit number at epoch: 12019

The dashed part of the orbit path shows where the satellite is in the earth's shadow,  

DLR